Location: Chakepay
(13.3931°S, 72.1925°W)
Time: 02:21:45
(UTC+00:00)

Ariane Rocket - Pass Details

Date: 15 November 2019
Orbit: 759 x 771 km, 98.7° (Epoch: 07 December)

Event Time Altitude Azimuth Distance (km) Brightness Sun altitude
Rises 00:08:01 0° 157° (SSE) 3,253 6.3 -17.3°
Reaches altitude 10° 00:10:26 10° 151° (SSE) 2,322 5.4 -17.9°
Maximum altitude 00:15:18 45° 79° (E) 1,051 3.2 -18.9°
Enters shadow 00:17:23 29° 27° (NNE) 1,372 3.9 -19.4°
